Simultaneous Nadir Overpasses (SNOs) Predictions

Prediction of SNOs between AQUA and NPP Satellite Orbit:

Table of predicted SNOs for the next 14.0 days since TLE Epoch: 1/9/2016
Index Date (AQUA) Time (AQUA) Lat,Lon (AQUA) SZA (AQUA ) Date (NPP) Time (NPP) Lat,Lon (NPP) SZA (NPP ) Distance(km) Time Diff (sec)
1 01/09/2016 04:44:54 69.05, -25.32 126.22 01/09/2016 04:44:26 69.15, -25.81 126.33 22.32 28
2 01/09/2016 05:32:19 -75.56, 154.72 60.34 01/09/2016 05:33:05 -75.57, 154.77 60.40 1.45 46
3 01/11/2016 20:59:42 74.58, 100.34 120.40 01/11/2016 20:59:33 74.58, 100.37 120.40 1.11 9
4 01/11/2016 21:48:49 -75.62, -89.24 60.73 01/11/2016 21:49:57 -75.62, -89.32 60.77 2.39 68
5 01/14/2016 12:27:19 -72.95, 44.98 58.28 01/14/2016 12:26:15 -72.94, 44.93 58.20 1.89 64
6 01/14/2016 13:16:08 74.82,-143.17 119.77 01/14/2016 13:16:21 74.82,-143.21 119.76 1.26 13
7 01/17/2016 04:43:26 -74.12, 163.35 59.91 01/17/2016 04:42:43 -74.13, 163.43 59.89 2.54 43
8 01/17/2016 05:32:30 75.20, -26.30 118.93 01/17/2016 05:33:05 75.20, -26.36 118.92 1.93 35
9 01/19/2016 20:59:56 -74.13, -80.75 60.40 01/19/2016 20:59:36 -74.12, -80.81 60.36 2.19 20
10 01/19/2016 21:48:50 75.71, 91.01 117.90 01/19/2016 21:49:47 75.71, 90.98 117.85 0.86 57
11 01/22/2016 12:27:43 71.75,-137.22 121.55 01/22/2016 12:26:29 71.80,-137.33 121.62 6.44 74
12 01/22/2016 13:16:11 -74.89, 36.98 61.73 01/22/2016 13:16:13 -74.89, 36.98 61.74 0.34 2




NCC Satellite Simultaneous Nadir Overpasses (SNOs) Prediction Service
